Sylvania, GA

2:53 PM EST on November 23, 2017 (GMT -0500)
Plantation

Weather History for KJYL - February, 2013

Change the Weather History Date:

Wednesday, February 6, 2013

  Actual Average (KSAV) Record (KSAV)
Temperature  
Mean Temperature 60 °F -  
Max Temperature 75 °F 59 °F 82 °F (2008)
Min Temperature 46 °F 39 °F 19 °F (1966)
Degree Days  
Heating Degree Days 4    
Growing Degree Days 10 (Base 50)    
Moisture  
Dew Point 50 °F    
Average Humidity 78    
Maximum Humidity 100    
Minimum Humidity 41    
Precipitation  
Precipitation 0.00 in - - ()
Sea Level Pressure  
Sea Level Pressure 30.12 in    
Wind  
Wind Speed 1 mph (WSW)    
Max Wind Speed 7 mph    
Max Gust Speed -    
Visibility 8 miles    
Events Fog    
Averages and records for this station are not official NWS values.
T = Trace of Precipitation, MM = Missing Value Source: NWS Daily Summary

Daily Weather History Graph

Daily Weather History Graph

Search for Another Location

Airport or City:

Trip Planner

Search our weather history database for the weather conditions in past years. The results will help you decide how hot, cold, wet, or windy it might be!

Date:

Astronomy

Feb. 06, 2013 Rise Set
Actual Time 7:17 AM EST 6:04 PM EST
Civil Twilight 6:51 AM EST 6:29 PM EST
Nautical Twilight 6:22 AM EST 6:59 PM EST
Astronomical Twilight 5:53 AM EST 7:27 PM EST
Moon 3:53 AM EST (2/6) 2:27 PM EST (2/6)
Length of Visible Light 11h 38m
Length of Day
10h 47m
Waning Crescent, 17% of the Moon is Illuminated
Feb 6
Waning Crescent
Feb 10
New
Feb 17
First Quarter
Feb 25
Full
Mar 4
Last Quarter

Hourly Weather History & Observations

Time (EST) Temp. Dew Point Humidity Pressure Visibility Wind Dir Wind Speed Gust Speed Precip Events Conditions
12:15 AM 50.0 °F 48.9 °F 96% 30.05 in 10.0 mi Calm Calm - N/A   Clear
12:35 AM 50.0 °F 49.1 °F 97% 30.05 in 10.0 mi Calm Calm - N/A   Clear
12:55 AM 50.9 °F 50.2 °F 97% 30.05 in 10.0 mi Calm Calm - N/A   Clear
1:15 AM 50.0 °F 49.5 °F 98% 30.05 in 10.0 mi Calm Calm - N/A   Clear
1:35 AM 52.0 °F 51.4 °F 98% 30.06 in 10.0 mi Calm Calm - N/A   Clear
1:55 AM 49.3 °F 49.1 °F 99% 30.05 in 10.0 mi Calm Calm - N/A   Clear
2:15 AM 50.7 °F 50.7 °F 100% 30.06 in 10.0 mi Calm Calm - N/A   Clear
2:35 AM 50.9 °F 50.9 °F 100% 30.06 in 5.0 mi Calm Calm - N/A   Clear
2:55 AM 50.5 °F 50.5 °F 100% 30.06 in 5.0 mi Calm Calm - N/A   Clear
3:15 AM 49.1 °F 49.1 °F 100% 30.06 in 0.2 mi Calm Calm - N/A Fog Fog
3:35 AM 49.6 °F 49.6 °F 100% 30.06 in 0.2 mi Calm Calm - N/A Fog Fog
3:55 AM 48.2 °F 48.2 °F 100% 30.07 in 2.5 mi Calm Calm - N/A   Clear
4:15 AM 48.6 °F 48.6 °F 100% 30.07 in 0.8 mi Calm Calm - N/A   Mist
4:35 AM 46.4 °F 46.4 °F 100% 30.07 in 0.2 mi Calm Calm - N/A Fog Fog
4:55 AM 47.7 °F 47.7 °F 100% 30.08 in 4.0 mi Calm Calm - N/A   Clear
5:15 AM 47.3 °F 47.3 °F 100% 30.08 in 0.8 mi Calm Calm - N/A   Mist
5:35 AM 46.0 °F 46.0 °F 100% 30.08 in 0.2 mi Calm Calm - N/A Fog Fog
5:55 AM 47.5 °F 47.5 °F 100% 30.09 in 1.5 mi Calm Calm - N/A   Mist
6:15 AM 48.2 °F 48.2 °F 100% 30.10 in 3.0 mi Calm Calm - N/A   Clear
6:35 AM 47.8 °F 47.8 °F 100% 30.10 in 1.5 mi Calm Calm - N/A   Mist
6:55 AM 51.4 °F 51.4 °F 100% 30.11 in 3.0 mi West 3.5 mph - N/A   Clear
7:15 AM 48.2 °F 48.2 °F 100% 30.12 in 1.8 mi Calm Calm - N/A   Mostly Cloudy
7:35 AM 48.2 °F 48.2 °F 100% 30.13 in 0.2 mi Calm Calm - N/A Fog Fog
8:15 AM 49.6 °F 49.6 °F 100% 30.14 in 0.5 mi Calm Calm - N/A Fog Fog
8:35 AM 52.2 °F 52.2 °F 100% 30.15 in 1.8 mi Calm Calm - N/A   Mist
8:55 AM 53.8 °F 53.8 °F 100% 30.15 in 5.0 mi Calm Calm - N/A   Clear
9:15 AM 55.0 °F 55.0 °F 100% 30.16 in 7.0 mi Calm Calm - N/A   Clear
9:35 AM 57.2 °F 57.2 °F 100% 30.16 in 7.0 mi Calm Calm - N/A   Clear
9:55 AM 60.3 °F 55.6 °F 85% 30.16 in 10.0 mi Calm Calm - N/A   Clear
10:15 AM 63.9 °F 53.2 °F 68% 30.17 in 10.0 mi North 6.9 mph - N/A   Clear
10:35 AM 65.1 °F 52.7 °F 64% 30.17 in 10.0 mi North 3.5 mph - N/A   Clear
10:55 AM 67.3 °F 50.0 °F 54% 30.17 in 10.0 mi ENE 5.8 mph - N/A   Clear
11:15 AM 68.0 °F 49.5 °F 51% 30.17 in 10.0 mi Calm Calm - N/A   Clear
11:35 AM 69.4 °F 48.9 °F 48% 30.17 in 10.0 mi Calm Calm - N/A   Clear
11:55 AM 70.3 °F 49.1 °F 47% 30.17 in 10.0 mi North 3.5 mph - N/A   Clear
12:15 PM 70.7 °F 48.9 °F 46% 30.16 in 10.0 mi Calm Calm - N/A   Clear
12:35 PM 71.2 °F 48.9 °F 45% 30.15 in 10.0 mi West 5.8 mph - N/A   Clear
12:55 PM 71.8 °F 48.6 °F 44% 30.13 in 10.0 mi NE 4.6 mph - N/A   Clear
1:15 PM 72.3 °F 48.6 °F 43% 30.12 in 10.0 mi Calm Calm - N/A   Clear
1:35 PM 74.1 °F 49.1 °F 41% 30.11 in 10.0 mi ESE 4.6 mph - N/A   Clear
1:55 PM 74.1 °F 49.1 °F 41% 30.11 in 10.0 mi Calm Calm - N/A   Clear
2:15 PM 74.7 °F 49.8 °F 42% 30.11 in 10.0 mi SSW 4.6 mph - N/A   Clear
2:35 PM 75.2 °F 50.4 °F 42% 30.11 in 10.0 mi West 3.5 mph - N/A   Scattered Clouds
2:55 PM 75.0 °F 50.2 °F 42% 30.11 in 10.0 mi West 4.6 mph - N/A   Scattered Clouds
3:15 PM 74.7 °F 50.0 °F 42% 30.11 in 10.0 mi WSW 4.6 mph - N/A   Clear
3:35 PM 75.0 °F 50.9 °F 43% 30.10 in 10.0 mi WSW 4.6 mph - N/A   Scattered Clouds
3:55 PM 74.5 °F 50.4 °F 43% 30.10 in 10.0 mi WSW 4.6 mph - N/A   Mostly Cloudy
4:15 PM 74.8 °F 49.6 °F 41% 30.10 in 10.0 mi Calm Calm - N/A   Scattered Clouds
4:35 PM 74.5 °F 50.0 °F 42% 30.10 in 10.0 mi WSW 3.5 mph - N/A   Clear
4:55 PM 74.3 °F 50.2 °F 43% 30.10 in 10.0 mi SW 4.6 mph - N/A   Clear
5:15 PM 73.6 °F 50.2 °F 44% 30.10 in 10.0 mi Calm Calm - N/A   Clear
5:35 PM 72.5 °F 50.2 °F 45% 30.11 in 10.0 mi Calm Calm - N/A   Clear
5:55 PM 69.1 °F 51.1 °F 53% 30.11 in 10.0 mi Calm Calm - N/A   Clear
6:15 PM 65.3 °F 51.1 °F 60% 30.11 in 10.0 mi Calm Calm - N/A   Clear
6:35 PM 63.3 °F 52.7 °F 68% 30.12 in 10.0 mi Calm Calm - N/A   Clear
6:55 PM 61.3 °F 52.7 °F 73% 30.12 in 10.0 mi Calm Calm - N/A   Clear
7:15 PM 58.8 °F 52.0 °F 78% 30.13 in 10.0 mi Calm Calm - N/A   Clear
7:35 PM 57.6 °F 51.1 °F 79% 30.13 in 10.0 mi Calm Calm - N/A   Clear
7:55 PM 56.1 °F 50.9 °F 83% 30.13 in 10.0 mi Calm Calm - N/A   Clear
8:15 PM 54.7 °F 50.2 °F 85% 30.13 in 10.0 mi Calm Calm - N/A   Clear
8:35 PM 55.0 °F 50.7 °F 85% 30.12 in 10.0 mi SE 4.6 mph - N/A   Clear
8:55 PM 60.1 °F 53.1 °F 78% 30.13 in 10.0 mi SSE 3.5 mph - N/A   Clear
9:15 PM 57.7 °F 52.5 °F 83% 30.15 in 10.0 mi Calm Calm - N/A   Clear
9:35 PM 54.1 °F 50.4 °F 87% 30.16 in 10.0 mi Calm Calm - N/A   Clear
9:55 PM 53.8 °F 50.9 °F 90% 30.16 in 10.0 mi Calm Calm - N/A   Clear
10:15 PM 53.1 °F 50.7 °F 92% 30.16 in 10.0 mi Calm Calm - N/A   Clear
10:35 PM 51.1 °F 49.6 °F 95% 30.16 in 10.0 mi Calm Calm - N/A   Clear
10:55 PM 50.7 °F 49.6 °F 96% 30.16 in 10.0 mi Calm Calm - N/A   Clear
11:15 PM 50.5 °F 50.2 °F 99% 30.16 in 10.0 mi Calm Calm - N/A   Clear
11:35 PM 50.4 °F 50.0 °F 99% 30.16 in 10.0 mi Calm Calm - N/A   Clear
11:55 PM 49.5 °F 49.3 °F 99% 30.15 in 10.0 mi Calm Calm - N/A   Clear